TimeCST,TemperatureF,Dew PointF,Humidity,Sea Level PressureIn,VisibilityMPH,Wind Direction,Wind SpeedMPH,Gust SpeedMPH,PrecipitationIn,Events,Conditions,WindDirDegrees,DateUTC
12:15 AM,38.7,23.0,53,30.05,10.0,SE,3.5,-,N/A,,Clear,130,2013-02-18 06:15:00
12:55 AM,39.6,23.9,54,30.04,10.0,SSE,5.8,-,N/A,,Clear,150,2013-02-18 06:55:00
1:15 AM,39.7,24.4,54,30.03,10.0,SSE,4.6,-,N/A,,Clear,150,2013-02-18 07:15:00
1:35 AM,39.4,24.8,56,30.03,10.0,SSE,4.6,-,N/A,,Clear,150,2013-02-18 07:35:00
1:55 AM,40.1,25.2,55,30.02,10.0,SSE,5.8,-,N/A,,Clear,160,2013-02-18 07:55:00
2:15 AM,40.6,25.5,55,30.01,10.0,South,5.8,-,N/A,,Clear,170,2013-02-18 08:15:00
2:35 AM,41.0,25.7,55,30.01,10.0,SSE,5.8,-,N/A,,Clear,160,2013-02-18 08:35:00
2:55 AM,41.0,26.4,56,30.01,10.0,SSE,5.8,-,N/A,,Clear,150,2013-02-18 08:55:00
3:15 AM,41.5,26.8,56,30.00,10.0,SSE,6.9,-,N/A,,Clear,160,2013-02-18 09:15:00
3:35 AM,42.3,27.5,56,30.00,10.0,South,9.2,17.3,N/A,,Clear,170,2013-02-18 09:35:00
3:55 AM,42.3,28.0,57,30.00,10.0,South,5.8,-,N/A,,Clear,180,2013-02-18 09:55:00
4:15 AM,43.2,29.1,58,30.01,10.0,South,9.2,-,N/A,,Clear,170,2013-02-18 10:15:00
4:35 AM,43.7,30.2,59,30.01,10.0,South,11.5,18.4,N/A,,Clear,180,2013-02-18 10:35:00
4:55 AM,44.1,31.1,60,30.01,10.0,South,9.2,-,N/A,,Clear,190,2013-02-18 10:55:00
5:15 AM,44.2,31.6,61,30.01,10.0,South,10.4,17.3,N/A,,Clear,180,2013-02-18 11:15:00
5:35 AM,43.9,32.0,63,30.00,10.0,South,9.2,16.1,N/A,,Clear,180,2013-02-18 11:35:00
6:15 AM,43.9,32.9,65,30.00,10.0,South,10.4,16.1,N/A,,Clear,170,2013-02-18 12:15:00
6:55 AM,44.8,34.0,66,30.00,10.0,South,8.1,17.3,N/A,,Clear,180,2013-02-18 12:55:00
7:15 AM,45.9,35.6,67,30.00,10.0,South,12.7,18.4,N/A,,Clear,190,2013-02-18 13:15:00
7:35 AM,46.9,36.5,67,30.00,10.0,South,16.1,23.0,N/A,,Clear,190,2013-02-18 13:35:00
7:55 AM,47.7,37.2,67,30.00,10.0,South,12.7,20.7,N/A,,Clear,190,2013-02-18 13:55:00
8:35 AM,49.8,37.4,62,30.00,10.0,South,18.4,24.2,N/A,,Clear,190,2013-02-18 14:35:00
8:55 AM,51.1,37.9,61,30.00,10.0,South,19.6,31.1,N/A,,Clear,190,2013-02-18 14:55:00
9:15 AM,51.8,38.3,60,29.99,10.0,South,17.3,28.8,N/A,,Clear,180,2013-02-18 15:15:00
9:35 AM,52.9,38.5,58,29.98,10.0,South,18.4,31.1,N/A,,Clear,190,2013-02-18 15:35:00
9:55 AM,53.4,38.5,57,29.97,10.0,South,17.3,28.8,N/A,,Clear,190,2013-02-18 15:55:00
10:15 AM,54.5,37.6,53,29.96,10.0,South,20.7,32.2,N/A,,Clear,190,2013-02-18 16:15:00
10:35 AM,55.6,37.0,50,29.96,10.0,South,16.1,27.6,N/A,,Mostly Cloudy,180,2013-02-18 16:35:00
10:55 AM,55.9,36.0,47,29.95,10.0,South,19.6,27.6,N/A,,Overcast,190,2013-02-18 16:55:00
11:15 AM,56.7,36.3,47,29.94,10.0,SSW,19.6,26.5,N/A,,Overcast,200,2013-02-18 17:15:00
11:35 AM,57.7,35.2,43,29.93,10.0,South,24.2,32.2,N/A,,Overcast,190,2013-02-18 17:35:00
11:55 AM,59.2,33.4,38,29.92,10.0,South,19.6,33.4,N/A,,Overcast,190,2013-02-18 17:55:00
12:15 PM,59.0,34.3,40,29.90,10.0,South,20.7,28.8,N/A,,Overcast,190,2013-02-18 18:15:00
12:35 PM,58.3,34.9,41,29.88,10.0,South,20.7,31.1,N/A,,Overcast,170,2013-02-18 18:35:00
12:55 PM,58.8,35.4,42,29.86,10.0,South,16.1,32.2,N/A,,Overcast,190,2013-02-18 18:55:00
1:15 PM,58.1,33.3,39,29.86,10.0,South,19.6,28.8,N/A,,Overcast,180,2013-02-18 19:15:00
1:35 PM,57.2,33.6,41,29.86,10.0,SSW,16.1,25.3,N/A,Rain,Light Rain,200,2013-02-18 19:35:00
1:55 PM,54.9,39.7,57,29.85,10.0,SSW,18.4,29.9,N/A,Rain,Light Rain,200,2013-02-18 19:55:00
2:15 PM,54.1,42.4,65,29.85,10.0,South,10.4,24.2,N/A,Rain,Rain,190,2013-02-18 20:15:00
2:35 PM,52.9,44.1,72,29.82,10.0,South,12.7,28.8,0.02,Rain,Rain,170,2013-02-18 20:35:00
2:55 PM,52.5,44.1,73,29.81,10.0,South,12.7,19.6,0.03,Rain,Light Rain,170,2013-02-18 20:55:00
3:15 PM,52.9,43.9,71,29.80,10.0,South,18.4,31.1,0.01,Rain,Light Rain,170,2013-02-18 21:15:00
3:35 PM,51.1,45.0,80,29.79,10.0,SSE,16.1,21.9,0.03,Rain-Thunderstorm,Rain,160,2013-02-18 21:35:00
3:55 PM,50.5,45.5,83,29.78,10.0,SSE,15.0,23.0,0.05,Rain,Light Rain,160,2013-02-18 21:55:00
4:15 PM,50.9,45.7,82,29.76,10.0,SSE,15.0,26.5,0.01,Rain-Thunderstorm,Light Thunderstorms and Rain,160,2013-02-18 22:15:00
4:35 PM,50.7,46.0,84,29.75,10.0,SSE,11.5,20.7,0.02,Rain-Thunderstorm,Rain,150,2013-02-18 22:35:00
4:55 PM,50.5,45.9,84,29.73,10.0,SSE,15.0,23.0,0.02,Rain,Light Rain,160,2013-02-18 22:55:00
5:15 PM,50.5,45.5,83,29.73,10.0,South,13.8,21.9,0.01,Rain,Light Rain,170,2013-02-18 23:15:00
5:35 PM,50.4,45.9,85,29.73,10.0,SSE,12.7,19.6,0.02,Rain-Thunderstorm,Light Thunderstorms and Rain,160,2013-02-18 23:35:00
5:55 PM,50.4,46.0,85,29.73,10.0,South,13.8,18.4,0.03,Rain,Light Rain,170,2013-02-18 23:55:00
6:15 PM,50.2,46.8,88,29.73,10.0,South,10.4,18.4,0.02,Rain,Rain,170,2013-02-19 00:15:00
6:55 PM,50.4,47.7,90,29.69,10.0,SSE,16.1,26.5,0.07,Rain,Light Rain,160,2013-02-19 00:55:00
7:15 PM,50.7,47.5,89,29.69,7.0,South,18.4,27.6,0.02,Rain,Rain,180,2013-02-19 01:15:00
7:35 PM,50.4,48.2,92,29.69,10.0,South,17.3,29.9,0.08,Rain,Light Rain,170,2013-02-19 01:35:00
7:55 PM,50.4,48.7,94,29.78,4.0,SSW,20.7,32.2,0.17,Rain-Thunderstorm,Heavy Thunderstorms and Rain,210,2013-02-19 01:55:00
8:15 PM,50.0,48.0,93,29.76,7.0,SSW,15.0,24.2,0.04,Rain,Rain,210,2013-02-19 02:15:00
8:35 PM,48.0,46.8,95,29.72,10.0,South,12.7,17.3,0.08,Rain,Light Rain,180,2013-02-19 02:35:00
8:55 PM,48.2,46.6,94,29.72,10.0,South,9.2,-,0.08,,Overcast,180,2013-02-19 02:55:00
9:15 PM,49.1,47.3,93,29.73,10.0,South,5.8,-,N/A,,Overcast,190,2013-02-19 03:15:00
9:35 PM,49.6,48.6,96,29.73,10.0,South,9.2,16.1,N/A,,Overcast,190,2013-02-19 03:35:00
9:55 PM,50.4,48.7,94,29.74,10.0,WSW,9.2,18.4,N/A,,Overcast,250,2013-02-19 03:55:00
10:15 PM,50.9,48.9,93,29.75,10.0,SW,16.1,21.9,N/A,,Drizzle,230,2013-02-19 04:15:00
10:35 PM,50.4,49.3,96,29.78,5.0,West,11.5,23.0,0.01,,Heavy Drizzle,270,2013-02-19 04:35:00
10:55 PM,44.6,42.8,93,29.82,7.0,NW,13.8,25.3,0.02,Rain,Rain,310,2013-02-19 04:55:00
11:15 PM,43.7,41.2,91,29.84,10.0,NW,13.8,24.2,N/A,,Overcast,310,2013-02-19 05:15:00
11:35 PM,42.8,37.6,82,29.86,10.0,WNW,19.6,26.5,N/A,,Overcast,290,2013-02-19 05:35:00
11:55 PM,42.4,36.7,80,29.87,10.0,NW,13.8,21.9,N/A,,Overcast,310,2013-02-19 05:55:00